Regional Weather Roundup
Issued by NWS

Home | Current Version | Previous Version | Graphics & Text | Print | Product List | Glossary On
Versions: 1 2 3 4 5 6 7 8 9 10 11 12 13 14 15 16 17 18 19 20 21 22 23 24 25 26 27 28 29 30 31 32 33 34 35 36 37 38 39 40 41 42 43 44 45 46 47 48 49 50
000
ASUS45 KBOU 241307
RWRCO

WEATHER ROUNDUP FOR COLORADO
NATIONAL WEATHER SERVICE DENVER/BOULDER CO
600 AM MST TUE JAN 24 2017

NOTE: "FAIR" INDICATES FEW OR NO CLOUDS BELOW 12000 FEET WITH NO
SIGNIFICANT WEATHER AND/OR OBSTRUCTIONS TO VISIBILITY.

COZ001>005-013-030-031-241400-
...NORTHWEST COLORADO...

CITY           SKY/WX    TMP DP  RH WIND       PRES   REMARKS
CRAIG          LGT SNOW  25  21  85 W5        29.58R VSB 1   WCI  19
HAYDEN         CLOUDY    23  16  74 W8        29.55R WCI  14
MEEKER         LGT SNOW  26  24  92 SW3       29.56R FOG
MOUNT WERNER   NOT AVBL
STEAMBOAT SPGS CLOUDY    20  17  90 SE3       29.54R
WALDEN           N/A      3  -2  78 SE8       29.51R WCI -10
$$

COZ006>008-011-241400-
...WEST CENTRAL VALLEYS...

CITY           SKY/WX    TMP DP  RH WIND       PRES   REMARKS
GRAND JUNCTION CLOUDY    30  28  92 W3        29.60R
MONTROSE       CLOUDY    28  24  85 S3        29.60R
EAGLE          CLOUDY    15  12  88 E5        29.59R WCI   8
RIFLE          CLOUDY    26  24  92 CALM      29.58R
DELTA          CLOUDY    32  27  81 CALM      29.59R
NUCLA          FLURRIES  28  27  93 E3        29.63R
$$

COZ017>023-064>068-241400-
...SOUTHWEST COLORADO...

CITY           SKY/WX    TMP DP  RH WIND       PRES   REMARKS
DURANGO        FLURRIES  21  17  84 E6        29.57S WCI  13
CORTEZ         CLOUDY    25  24  96 CALM      29.61R FOG
PAGOSA SPRINGS LGT SNOW  24  24 100 SW6       29.55S WCI  17
TELLURIDE      LGT SNOW  18  17  94 CALM      29.54R
WOLF CREEK PAS CLOUDY     9   7  92 SW10      29.51S WCI  -6
$$

COZ009-010-012-014-032>034-037-058>063-241400-
...CENTRAL COLORADO...

CITY           SKY/WX    TMP DP  RH WIND       PRES   REMARKS
ASPEN          CLOUDY    14  10  84 S6        29.52R WCI   5
BUENA VISTA    CLOUDY     9   4  82 CALM      29.53R
COPPER MTN     CLOUDY    10   3  72 MISG      29.45R
BERTHOUD PASS  CLOUDY     3  -8  60 MISG      29.43R
COTTONWOOD PAS CLOUDY    19   7  58 SW8       29.49R WCI   9
GUNNISON       LGT SNOW  14  11  87 N3        29.56R FOG
KREMMLING      CLOUDY    14   9  79 CALM      29.56R
LEADVILLE      CLOUDY     3  -1  83 E6        29.48R WCI  -8
MONARCH PASS     N/A      9   3  78 CALM      29.55S
SALIDA         FAIR      20  11  68 N7        29.60R WCI  11
SUNLIGHT       CLOUDY    10   7  85 W3        29.53S
WILKERSON PASS CLOUDY   N/A N/A N/A CALM      29.48S
$$

COZ069>075-241400-
...SAN LUIS VALLEY/SANGRE DE CRISTO MOUNTAINS...

CITY           SKY/WX    TMP DP  RH WIND       PRES   REMARKS
ALAMOSA        CLOUDY    20  17  88 W8        29.51R WCI  10
LA VETA PASS   CLOUDY    18  16  93 N13G23    29.48S WCI   4
SAGUACHE       CLOUDY    19  14  79 N8        29.52R WCI   9
$$

COZ035-036-038>040-241400-
...NORTHERN COLORADO FRONT RANGE...

CITY           SKY/WX    TMP DP  RH WIND       PRES   REMARKS
DENVER INTL AP CLOUDY    31  27  85 NW5       29.51R WCI  26
DMNS CITY PARK   N/A     32  26  80 SE2G9     29.51S
AURORA         CLOUDY    30  29  98 W6        29.51R WCI  24
FRONT RANGE AP NOT AVBL
ERIE MUNI ARPT FAIR      25  24  95 CALM      29.52R
BOULDER MUN AP FAIR      28  23  80 CALM      29.51R
CENTENNIAL     MOCLDY    28  25  88 N6        29.50R WCI  22
BROOMFIELD     CLOUDY    28  27  93 W5        29.51R WCI  23
FORT COLLINS   FAIR      22  20  92 CALM      29.51R
LONGMONT       FAIR      26  23  89 NW5       29.53S WCI  20
$$

COZ041-046-047-076>085-087-088-241400-
...PIKES PEAK/PALMER DIVIDE AND SOUTHERN FOOTHILLS...

CITY           SKY/WX    TMP DP  RH WIND       PRES   REMARKS
COLO. SPRINGS  FAIR      24  15  68 N8        29.44F WCI  15
A. F. ACADEMY  FAIR      21  18  86 N9        29.45R WCI  11
SCHRIEVER AFB  FAIR      26  21  82 N14       29.45S WCI  14
ELLICOTT       FAIR     N/A N/A N/A NE8       29.42F
FALCON         FAIR      25  22  86 N16       29.46R WCI  13
FORT CARSON    FAIR      26  19  76 NE5       29.44R WCI  20
LIMON          CLOUDY    29  28  96 NW15      29.46R WCI  18
MONUMENT HILL  FOG       25  23  93 NW9       29.49R VSB 1/2 WCI  15
TRINIDAD       FAIR      33  23  66 W18       29.48S WCI  22
$$

COZ042>045-048>051-090-091-241400-
...NORTHEAST COLORADO...

CITY           SKY/WX    TMP DP  RH WIND       PRES   REMARKS
GREELEY ARPT   MOCLDY    27  25  92 W6        29.53R WCI  20
AKRON          FOG       28  26  92 N14       29.49S VSB 1/4 WCI  17
BURLINGTON     FOG       31  29  92 N16       29.44R VSB 1/2 WCI  20
WRAY           CLOUDY   N/A N/A N/A NE14      29.48R FOG
STERLING       CLOUDY    30  28  93 N13G21    29.53R WCI  20
HOLYOKE        CLOUDY    34  32  93 NE16      29.50S FOG     WCI  23
FORT MORGAN    CLOUDY    30  28  90 NE15      29.50F WCI  19
$$

COZ086-089-092>099-241400-
...SOUTHEAST COLORADO...

CITY           SKY/WX    TMP DP  RH WIND       PRES   REMARKS
PUEBLO         FAIR      33  19  56 W5        29.45S WCI  29
LA JUNTA       FAIR      39  28  64 SW6       29.45S
LAMAR          FAIR      33  28  81 NW5       29.44R WCI  29
SPRINGFIELD      N/A     30  28  92 SW8       29.46S WCI  22
$$



USA.gov is the U.S. government's official web portal to all federal, state and local government web resources and services.